"Pseudo-MPEC" for ZTF1079

Created 2025 Oct 18 0:35:23 UT using Find_Orb

Click here for an explanation of pseudo-MPECs

 
 Astrometry: 
     ZTF1079*tC2025 10 16.44454303 56 02.005+01 23 44.74   ~AGIo 16.73gUNEOCPI41
     ZTF1079 tC2025 10 16.44489103 56 08.377+01 24 24.75   ~AGIo 16.73gUNEOCPI41
     ZTF1079 tC2025 10 16.44501403 56 10.982+01 24 39.82   ~AGIo 16.65gUNEOCPI41
     ZTF1079 tC2025 10 16.44536103 56 17.475+01 25 20.64   ~AGIo 16.65gUNEOCPI41

Station data:
(I41) Palomar Mountain--ZTF  (N33.357336 W116.859780)  US/California.
   Observers B. T. Bolin, Z. T. F. Collaboration. Measurers B. T. Bolin,
   Z.-Y. Lin, F. J. Masci. 1.2-m f/2.4 Schmidt.

Orbital elements:  ZTF1079
   Perigee 2025 Oct 16.693805 +/- 26.9 TT = 16:39:04.7 (JD 2460965.193805)
Epoch 2025 Oct 16.0 TT = JDT 2460964.5                           AutoNEOCP
q331780.4582 +/- 4.26e+7            (J2000 equator)
H   27.90 G 0.15                    Peri.   30.516132 +/- 43
                                    Node    54.246126 +/- 60
e  43.08251004 +/- 0.24             Incl.   21.443718 +/- 15
From 4 observations 2025 Oct. 16 (70.7 sec); mean residual 1".12
Residuals in arcseconds: 
251016 I41  .85+  .28+    251016 I41  1.5+  .09+    
251016 I41  2.5-  .54-    251016 I41  .16+  .17+    

Ephemerides (geocentric):
Date (UTC) HH   RA             Dec           delta  r     elong  mag " sig PA
---- --------  ------------   ------------  ------ ------ -----  --- --------
2025 10 18 01  10 19 02.715   +21 07 08.26  898786 0.9931  56.2 21??  56d  87
2025 10 18 02  10 21 36.921   +21 04 38.55  922749 0.9930  55.7 22??  56d  87
2025 10 18 03  10 24 03.232   +21 02 08.33  946802 0.9928  55.2 22??  55d  87
2025 10 18 04  10 26 22.213   +20 59 38.26  970937 0.9927  54.8 22??  55d  87
2025 10 18 05  10 28 34.375   +20 57 08.89  995150 0.9925  54.3 22??  55d  87
2025 10 18 06  10 30 40.190   +20 54 40.65  .00681 0.9924  53.9 22??  55d  87
2025 10 18 07  10 32 40.085   +20 52 13.90  .00698 0.9922  53.5 22??  55d  86
2025 10 18 08  10 34 34.453   +20 49 48.93  .00714 0.9921  53.2 22??  54d  86
2025 10 18 09  10 36 23.656   +20 47 25.96  .00730 0.9919  52.8 22??  54d  86
2025 10 18 10  10 38 08.024   +20 45 05.16  .00747 0.9918  52.5 22??  54d  86
2025 10 18 11  10 39 47.862   +20 42 46.67  .00763 0.9917  52.2 22??  54d  86
2025 10 18 12  10 41 23.450   +20 40 30.59  .00780 0.9915  51.9 22??  54d  86
2025 10 18 13  10 42 55.046   +20 38 16.99  .00796 0.9914  51.6 22??  54d  86
2025 10 18 14  10 44 22.888   +20 36 05.91  .00813 0.9912  51.3 23??  53d  86
2025 10 18 15  10 45 47.198   +20 33 57.39  .00829 0.9911  51.1 23??  53d  86
2025 10 18 16  10 47 08.180   +20 31 51.42  .00846 0.9909  50.8 23??  53d  86
2025 10 18 17  10 48 26.022   +20 29 48.02  .00862 0.9908  50.6 23??  53d  86
2025 10 18 18  10 49 40.900   +20 27 47.17  .00879 0.9907  50.4 23??  53d  86
2025 10 18 19  10 50 52.976   +20 25 48.85  .00896 0.9905  50.2 23??  53d  86
2025 10 18 20  10 52 02.403   +20 23 53.02  .00912 0.9904  50.0 23??  53d  86
2025 10 18 21  10 53 09.321   +20 21 59.64  .00929 0.9902  49.8 23??  53d  86
2025 10 18 22  10 54 13.862   +20 20 08.69  .00946 0.9901  49.6 23??  53d  86
2025 10 18 23  10 55 16.148   +20 18 20.11  .00962 .98994  49.4 23??  52d  86
2025 10 19 00  10 56 16.294   +20 16 33.86  .00979 .98980  49.2 23??  52d  86
2025 10 19 01  10 57 14.406   +20 14 49.89  .00996 .98966  49.1 23??  52d  85
2025 10 19 02  10 58 10.586   +20 13 08.15  .01012 .98952  48.9 23??  52d  85
2025 10 19 03  10 59 04.926   +20 11 28.59  .01029 .98938  48.8 23??  52d  85
2025 10 19 04  10 59 57.515   +20 09 51.15  .01046 .98924  48.6 23??  52d  85
2025 10 19 05  11 00 48.434   +20 08 15.78  .01063 .98910  48.5 23??  52d  85
2025 10 19 06  11 01 37.763   +20 06 42.43  .01080 .98896  48.3 23??  52d  85
2025 10 19 07  11 02 25.573   +20 05 11.05  .01096 .98881  48.2 23??  52d  85
2025 10 19 08  11 03 11.933   +20 03 41.59  .01113 .98867  48.1 24??  52d  85
2025 10 19 09  11 03 56.908   +20 02 13.99  .01130 .98853  48.0 24??  52d  85
2025 10 19 10  11 04 40.558   +20 00 48.21  .01147 .98839  47.9 24??  51d  85
2025 10 19 11  11 05 22.941   +19 59 24.20  .01164 .98825  47.7 24??  51d  85
2025 10 19 12  11 06 04.111   +19 58 01.90  .01180 .98811  47.6 24??  51d  85
2025 10 19 13  11 06 44.119   +19 56 41.28  .01197 .98797  47.5 24??  51d  85
2025 10 19 14  11 07 23.013   +19 55 22.28  .01214 .98784  47.4 24??  51d  85
2025 10 19 15  11 08 00.840   +19 54 04.87  .01231 .98770  47.4 24??  51d  85
2025 10 19 16  11 08 37.642   +19 52 48.98  .01248 .98756  47.3 24??  51d  85
2025 10 19 17  11 09 13.461   +19 51 34.60  .01265 .98742  47.2 24??  51d  85
2025 10 19 18  11 09 48.335   +19 50 21.66  .01282 .98728  47.1 24??  51d  85
2025 10 19 19  11 10 22.302   +19 49 10.14  .01299 .98714  47.0 24??  51d  85
2025 10 19 20  11 10 55.396   +19 47 59.99  .01315 .98700  46.9 24??  51d  85
2025 10 19 21  11 11 27.651   +19 46 51.17  .01332 .98686  46.9 24??  51d  85
2025 10 19 22  11 11 59.098   +19 45 43.66  .01349 .98672  46.8 24??  51d  85
2025 10 19 23  11 12 29.767   +19 44 37.40  .01366 .98659  46.7 24??  51d  85
2025 10 20 00  11 12 59.687   +19 43 32.37  .01383 .98645  46.7 24??  51d  85